Weather observations for the past three days for
Zanesville Municipal Airport
Imperial (Metric)
Date Time (edt) Wind (mph) Vis. (mi.) Weather Sky Cond. Temperature (ºF) Relative Humidity Wind Chill (°F) Heat Index (°F) Pressure Precipitation (in)
Air Dwpt 6 hour altimeter (in) sea level (mb) 1 hr 3 hr 6 hr
Max. Min.
24 01:53 SE 3 4.00 Fog/Mist CLR 66.9 64.9 73.9 66 93% 30.1 1018.4
24 00:53 S 3 9.00 Fair CLR 68 66 93% 30.11 1018.7
23 23:53 Calm 10.00 Fair CLR 69.1 66.9 93% 30.1 1018.6
23 22:53 S 3 10.00 Fair CLR 69.1 66.9 93% 30.1 1018.6
23 21:53 SE 5 10.00 Fair CLR 71.1 68 90% 30.09 1018.3
23 20:53 SE 5 10.00 Fair CLR 72 69.1 91% 30.08 1017.9
23 19:53 E 6 10.00 Fair CLR 73.9 69.1 84 72 85% 30.06 1017.4 0.04
23 18:53 NE 7 10.00 Fair CLR 75.9 68 77% 77 30.06 1017.3
23 17:53 E 3 10.00 Mostly Cloudy BKN110 75 69.1 82% 75 30.05 1017.1 0.03
23 16:53 W 10 G 25 10.00 Thunderstorm Light Rain FEW039 SCT060 OVC100 75 68 79% 76 30.07 1017.8 0.01 0.01
23 15:53 S 6 10.00 Overcast SCT055 BKN070 OVC110 82 68 63% 85 30.04 1016.7
23 14:53 Calm 10.00 Fair CLR 81 68 65% 84 30.05 1017.1
23 13:53 S 5 10.00 Mostly Cloudy SCT022 SCT033 BKN110 80.1 70 82 66.9 71% 83 30.08 1017.9 0.01 0.01
23 12:53 SE 7 10.00 A Few Clouds FEW027 82 66.9 60% 85 30.09 1018.2
23 11:53 Vrbl 6 10.00 Fair CLR 79 66.9 67% 81 30.1 1018.5
23 10:53 Vrbl 5 10.00 A Few Clouds FEW017 78.1 68 71% 80 30.09 1018.4
23 08:53 SE 3 10.00 Fair CLR 69.1 64.9 87% 30.09 1018.4
23 07:53 Calm 10.00 Fair CLR 66.9 64 66.9 62.1 91% 30.08 1017.9
23 06:53 Calm 10.00 Partly Cloudy SCT002 62.1 61 96% 30.06 1017.5
23 05:53 Calm 2.00 Fog/Mist OVC001 62.1 61 96% 30.06 1017.2
23 04:53 Calm 8.00 Partly Cloudy SCT001 62.1 61 96% 30.05 1017.0
23 03:53 Calm 10.00 Partly Cloudy SCT001 63 61 93% 30.05 1016.9
23 02:53 Calm 5.00 Fog/Mist CLR 64.9 63 93% 30.05 1017.1
23 01:53 Calm 6.00 Fog/Mist CLR 64 63 75.9 64 96% 30.04 1016.7
23 00:53 Calm 10.00 Fair CLR 66.9 64.9 93% 30.04 1016.8
22 23:53 Calm 8.00 Fair CLR 66.9 64.9 93% 30.04 1016.5
22 22:53 Calm 10.00 Fair CLR 68 64.9 90% 30.03 1016.4
22 21:53 Calm 10.00 Fair CLR 70 66 87% 30.02 1015.9
22 20:53 Calm 10.00 Fair CLR 73 66 79% 30.01 1015.4
22 19:53 Vrbl 3 10.00 Overcast OVC085 75.9 64.9 78.1 72 69% 78 30 1015.1
22 18:53 Calm 10.00 Mostly Cloudy BKN085 75.9 64.9 69% 78 29.99 1015.0
22 17:53 Calm 10.00 Overcast SCT019 OVC100 75.9 66 72% 77 30 1015.1
22 16:53 Calm 10.00 Overcast SCT016 BKN022 OVC085 75 66 74% 76 30.01 1015.6
22 15:53 S 3 10.00 Overcast BKN009 OVC085 73 68 84% 30.02 1016.0
22 14:53 SE 7 10.00 Overcast FEW060 BKN070 OVC110 72 66.9 84% 30.03 1016.3
22 13:53 SE 3 10.00 Overcast OVC095 71.1 66.9 72 66.9 87% 30.03 1016.2 0.02 0.04
22 12:53 E 5 10.00 Light Rain OVC100 71.1 66 84% 30.03 1016.4 0.02
22 11:53 S 3 10.00 Overcast FEW080 FEW090 OVC110 71.1 64 79% 30.03 1016.4
22 10:53 N 3 10.00 Overcast OVC070 71.1 63 76% 30.03 1016.4
22 09:53 N 5 10.00 Overcast OVC065 70 63 79% 30.03 1016.1
22 08:53 Calm 10.00 Partly Cloudy SCT060 68 62.1 81% 30.03 1016.2
22 07:53 N 3 10.00 Partly Cloudy SCT100 66.9 61 69.1 64.9 81% 30.01 1015.7
22 06:53 Calm 10.00 Fair CLR 64.9 62.1 90% 30 1015.2
22 05:53 NE 3 10.00 Fair CLR 66 62.1 87% 30.02 1015.8
22 04:53 Calm 10.00 Light Rain FEW070 BKN110 66 62.1 87% 30.01 1015.6
22 03:53 Calm 10.00 A Few Clouds FEW080 66 62.1 87% 30.03 1016.1
22 02:53 N 3 10.00 Fair CLR 68 61 78% 30.04 1016.6
22 01:53 Calm 10.00 Mostly Cloudy BKN100 BKN120 68 62.1 77 66.9 81% 30.06 1017.2
22 00:53 Calm 10.00 Fair CLR 68 62.1 81% 30.07 1017.6
21 23:53 Calm 10.00 A Few Clouds FEW120 66.9 61 81% 30.08 1017.9
21 22:53 Calm 10.00 Fair CLR 71.1 61 71% 30.08 1017.7
21 21:53 Calm 10.00 Fair CLR 72 60.1 66% 30.08 1017.8
21 20:53 NW 3 10.00 Fair CLR 75 59 58% 77 30.06 1017.3
21 19:53 NW 5 10.00 Fair CLR 77 59 84 77 54% 79 30.06 1017.2
21 18:53 N 5 10.00 Fair CLR 79 57.9 49% 80 30.05 1017.0
21 17:53 N 8 10.00 Fair CLR 80.1 57.9 47% 81 30.06 1017.3
21 16:53 Vrbl 5 10.00 Fair CLR 82 57 43% 82 30.07 1017.7
21 15:53 NW 9 10.00 Fair CLR 84 59 43% 84 30.09 1018.1
21 14:53 E 3 10.00 Fair CLR 82 57 43% 82 30.1 1018.5
21 13:53 Calm 10.00 Fair CLR 81 57 82 63 44% 81 30.1 1018.8
21 12:53 Calm 10.00 Fair CLR 81 55.9 42% 81 30.11 1018.9
21 11:53 Calm 10.00 Fair CLR 79 54 42% 79 30.11 1018.9
21 10:53 Calm 10.00 Fair CLR 78.1 59 52% 79 30.12 1019.2
21 09:53 Calm 10.00 Fair CLR 73.9 59 60% 30.12 1019.4
21 08:53 Calm 10.00 Fair CLR 66.9 59 76% 30.12 1019.2
21 07:53 Calm 10.00 Fair CLR 63 57.9 63 57.9 84% 30.11 1019.1
21 06:53 Calm 10.00 Fair CLR 59 57 93% 30.12 1019.2
21 05:53 Calm 10.00 Fair CLR 57.9 55.9 93% 30.11 1018.8
21 04:53 Calm 10.00 Fair CLR 59 57 93% 30.1 1018.6
21 03:53 Calm 10.00 Fair CLR 61 57.9 90% 30.1 1018.4
21 02:53 Calm 10.00 Fair CLR 62.1 57.9 86% 30.1 1018.7
Date Time (edt) Wind (mph) Vis. (mi.) Weather Sky Cond. Air Dwpt Max. Min. Relative Humidity Wind Chill (°F) Heat Index (°F) altimeter (in) sea level (mb) 1 hr 3 hr 6 hr
6 hour
Temperature (ºF) Pressure Precipitation (in)